Location: Clover
(42.5131°N, 114.6874°W)
Time: 12:34:58
(UTC+00:00)

ARIANE 6 FM1 Upper Stage - Pass Details

Date: 30 January 2026
Orbit: 522 x 609 km, 62.0° (Epoch: 11 February)

Event Time Altitude Azimuth Distance (km) Brightness Sun altitude
Rises 01:31:42 0° 253° (WSW) 2,706 8.8 -8.2°
Reaches altitude 10° 01:34:20 10° 270° (W) 1,801 6.7 -8.7°
Maximum altitude 01:37:28 21° 321° (NW) 1,227 4.7 -9.3°
Drops below altitude 10° 01:40:35 10° 12° (NNE) 1,780 5.0 -9.8°
Enters shadow 01:42:22 - 25° (NNE) 2,376 5.5 -10.1°
